Location: Unspecified
(44.4377°N, 88.0525°W)
Time: 04:28:43
(UTC-06:00)

CZ-3 Stage 3 - Pass Details

Date: 27 January 2021
Orbit: 398 x 34787 km, 30.8° (Epoch: 27 February)

Event Time Altitude Azimuth Distance (km) Brightness Sun altitude
Rises 17:03:40 0° 244° (WSW) 5,129 10.4 -2.2°
Reaches altitude 10° 17:05:40 10° 240° (WSW) 4,774 8.6 -2.6°
Maximum altitude 17:22:46 63° 162° (SSE) 6,797 7.3 -5.4°
Drops below altitude 10° 01:55:44 10° 174° (S) 19,686 9.4 -55.0°
Sets 02:15:52 0° 168° (SSE) 16,363 9.1 -52.1°
